Volver al catálogo

NOAA 16 DEB

ActivoPO
NORAD 41273·DEBRIS·🇺🇸 United States

Lanzado Sep 21, 2000 desde Vandenberg Space Force Base

Loading…

Próximos Pases (próximas 24 horas)

TLE

ActualizadoSource: Space-Track

Época: Sep 13, 2026, 16:51 UTC

1 41273U 00055FZ  26256.70275038  .00016469  00000-0  20792-2 0  9998
2 41273  98.9084 169.3492 0030418   9.7115 350.4676 14.81673089563440

Sigue NOAA 16 DEB en tiempo real con AllMySat

Download on the App Store